This is the latest recevied weather packets stored in our database for station/object WB0RXX. If no packets are shown the sender has not sent any weather packets the latest 1 day(s).
| Time | Temp. | Humidity | Pressure | Rain* | Wind** | Luminosity | Snow |
|---|---|---|---|---|---|---|---|
| 1778030403 | 6.67° C | 49% | 1013.6 hPa | 0 mm | 0.45 m/s, 26° | - | - |
| 1778029804 | 6.67° C | 48% | 1013.7 hPa | 0 mm | 2.24 m/s, 316° | - | - |
| 1778029204 | 7.22° C | 48% | 1013.8 hPa | 0 mm | 1.34 m/s, 22° | - | - |
| 1778028604 | 7.22° C | 48% | 1013.7 hPa | 0 mm | 2.68 m/s, 348° | - | - |
| 1778028003 | 7.78° C | 48% | 1013.6 hPa | 0 mm | 1.34 m/s, 331° | - | - |
| 1778027404 | 7.78° C | 48% | 1013.4 hPa | 0 mm | 0.89 m/s, 346° | - | - |
| 1778026803 | 7.78° C | 47% | 1013.5 hPa | 0 mm | 0.89 m/s, 12° | - | - |
| 1778026204 | 7.78° C | 46% | 1013.3 hPa | 0 mm | 2.24 m/s, 357° | - | - |
| 1778025603 | 7.78° C | 46% | 1013.2 hPa | 0 mm | 3.13 m/s, 348° | - | - |
| 1778025004 | 7.78° C | 46% | 1013.1 hPa | 0 mm | 1.34 m/s, 317° | - | - |
| 1778024403 | 7.78° C | 46% | 1013.1 hPa | 0 mm | 3.13 m/s, 350° | - | - |
| 1778023803 | 8.33° C | 46% | 1013 hPa | 0 mm | 1.34 m/s, 309° | - | - |
| 1778023204 | 8.33° C | 46% | 1013 hPa | 0 mm | 2.68 m/s, 322° | - | - |
| 1778022604 | 8.33° C | 45% | 1012.9 hPa | 0 mm | 2.68 m/s, 351° | - | - |
| 1778022004 | 8.33° C | 46% | 1012.8 hPa | 0 mm | 0.89 m/s, 333° | - | - |
| 1778021404 | 8.33° C | 45% | 1012.8 hPa | 0 mm | 3.13 m/s, 322° | - | - |
| 1778020803 | 8.33° C | 45% | 1012.9 hPa | 0 mm | 1.34 m/s, 306° | - | - |
| 1778020216 | 8.89° C | 45% | 1012.8 hPa | 0 mm | 2.68 m/s, 340° | - | - |
| 1778019603 | 8.89° C | 44% | 1012.8 hPa | 0 mm | 2.24 m/s, 351° | - | - |
| 1778019004 | 8.89° C | 44% | 1012.8 hPa | 0 mm | 1.34 m/s, 323° | - | - |
| 1778018403 | 9.44° C | 43% | 1012.6 hPa | 0 mm | 1.79 m/s, 314° | - | - |
| 1778017805 | 9.44° C | 44% | 1012.6 hPa | 0 mm | 0.45 m/s, 309° | - | - |
| 1778017204 | 9.44° C | 42% | 1012.6 hPa | 0 mm | 2.24 m/s, 338° | - | - |
| 1778016604 | 10° C | 40% | 1012.5 hPa | 0 mm | 2.24 m/s, 304° | - | - |
| 1778016004 | 10° C | 40% | 1012.7 hPa | 0 mm | 1.79 m/s, 351° | - | - |
* Rain latest hour (hover to see other rain measurements)
** Current wind speed in m/s (hover to see current wind gust speed)